,,PA_Meas_PMT16A,,PR_Meas_QMR101_102,,RH_Meas_QMH101,,SR_Meas_QMS101,,TA_Meas_QMH101,,GenWind,,GenWind,
time,status,PA,status,PR,status,RH,status,SR,status,TA,status,DirAvg,status,SpdAvg,
2009-10-27, 00:00:04,VALID,917.761,VALID,0,VALID,97.6865,VALID,0,VALID,20.8504,VALID,68,VALID,0.221094,
2009-10-27, 00:01:04,VALID,917.707,VALID,0,VALID,97.7017,VALID,0,VALID,20.8113,VALID,68,VALID,0.323047,
2009-10-27, 00:02:04,VALID,917.703,VALID,0,VALID,97.6941,VALID,0,VALID,20.8113,VALID,68,VALID,0.0535156,
2009-10-27, 00:03:04,VALID,917.635,VALID,0,VALID,97.6788,VALID,0,VALID,20.8113,VALID,68,VALID,0.725781,
2009-10-27, 00:04:04,VALID,917.602,VALID,0,VALID,97.6483,VALID,0,VALID,20.7708,VALID,68,VALID,0.985156,
2009-10-27, 00:05:04,VALID,917.564,VALID,0,VALID,97.6941,VALID,0,VALID,20.7918,VALID,68,VALID,0.222266,
2009-10-27, 00:06:04,VALID,917.564,VALID,0.2,VALID,97.6865,VALID,0,VALID,20.7918,VALID,68,VALID,0.733984,
2009-10-27, 00:07:04,VALID,917.564,VALID,0,VALID,97.6865,VALID,0.107441,VALID,20.7528,VALID,68,VALID,0.743359,
2009-10-27, 00:08:04,VALID,917.542,VALID,0,VALID,97.6941,VALID,0,VALID,20.7918,VALID,68,VALID,0,
2009-10-27, 00:09:04,VALID,917.482,VALID,0,VALID,97.6788,VALID,0,VALID,20.8113,VALID,68,VALID,0.230078,
2009-10-27, 00:10:04,VALID,917.509,VALID,0,VALID,97.6865,VALID,0,VALID,20.7723,VALID,68,VALID,0.356641,
2009-10-27, 00:11:04,VALID,917.488,VALID,0,VALID,97.6788,VALID,0,VALID,20.7333,VALID,68,VALID,0.505469,
2009-10-27, 00:12:04,VALID,917.475,VALID,0,VALID,97.7093,VALID,0,VALID,20.6748,VALID,68,VALID,0.316797,
2009-10-27, 00:13:04,VALID,917.505,VALID,0,VALID,97.7093,VALID,0,VALID,20.6764,VALID,68,VALID,0.601563,
2009-10-27, 00:14:04,VALID,917.501,VALID,0,VALID,97.6865,VALID,0,VALID,20.6553,VALID,68,VALID,0.841016,
2009-10-27, 00:15:04,VALID,917.499,VALID,0,VALID,97.7093,VALID,0,VALID,20.6553,VALID,7,VALID,1.18203,
2009-10-27, 00:16:04,VALID,917.51,VALID,0,VALID,97.7246,VALID,0,VALID,20.6553,VALID,354,VALID,1.2457,
2009-10-27, 00:17:04,VALID,917.528,VALID,0,VALID,97.6941,VALID,0,VALID,20.6163,VALID,28,VALID,1.78945,
2009-10-27, 00:18:04,VALID,917.504,VALID,0,VALID,97.6865,VALID,0,VALID,20.5968,VALID,29,VALID,0.712109,
2009-10-27, 00:19:04,VALID,917.536,VALID,0,VALID,97.7169,VALID,0,VALID,20.5968,VALID,36,VALID,1.50352,
2009-10-27, 00:20:04,VALID,917.504,VALID,0,VALID,97.7093,VALID,0,VALID,20.6163,VALID,36,VALID,0.736719,
2009-10-27, 00:21:04,VALID,917.518,VALID,0,VALID,97.7169,VALID,0,VALID,20.5773,VALID,64,VALID,0.647266,
2009-10-27, 00:22:04,VALID,917.497,VALID,0,VALID,97.7017,VALID,0,VALID,20.6163,VALID,64,VALID,0.00585938,
2009-10-27, 00:23:04,VALID,917.494,VALID,0.2,VALID,97.7246,VALID,0,VALID,20.5757,VALID,64,VALID,0.574609,
2009-10-27, 00:24:04,VALID,917.478,VALID,0,VALID,97.7169,VALID,0,VALID,20.5984,VALID,64,VALID,0.240625,
2009-10-27, 00:25:04,VALID,917.47,VALID,0.2,VALID,97.7017,VALID,0,VALID,20.5578,VALID,231,VALID,0.685547,
2009-10-27, 00:26:04,VALID,917.374,VALID,0.4,VALID,97.7246,VALID,0,VALID,20.5773,VALID,231,VALID,0.326562,
2009-10-27, 00:27:04,VALID,917.342,VALID,0.2,VALID,97.7322,VALID,0,VALID,20.5968,VALID,231,VALID,0.479688,
2009-10-27, 00:28:04,VALID,917.335,VALID,0,VALID,97.7246,VALID,0,VALID,20.5984,VALID,231,VALID,0.328125,
2009-10-27, 00:29:04,VALID,917.275,VALID,0.2,VALID,97.7246,VALID,0,VALID,20.5578,VALID,231,VALID,0.365625,
2009-10-27, 00:30:04,VALID,917.271,VALID,0.2,VALID,97.7474,VALID,0,VALID,20.5383,VALID,231,VALID,0.657422,
2009-10-27, 00:31:04,VALID,917.263,VALID,0,VALID,97.7246,VALID,0,VALID,20.5578,VALID,230,VALID,0.3125,
2009-10-27, 00:32:04,VALID,917.225,VALID,0.2,VALID,97.7398,VALID,0,VALID,20.5773,VALID,230,VALID,1.39375,
2009-10-27, 00:33:04,VALID,917.242,VALID,0,VALID,97.7398,VALID,0,VALID,20.6358,VALID,230,VALID,0.842969,
2009-10-27, 00:34:04,VALID,917.24,VALID,0,VALID,97.7398,VALID,0,VALID,20.6358,VALID,230,VALID,0.755469,
2009-10-27, 00:35:04,VALID,917.258,VALID,0,VALID,97.7093,VALID,0,VALID,20.6358,VALID,39,VALID,1.07852,
2009-10-27, 00:36:04,VALID,917.289,VALID,0,VALID,97.7169,VALID,0,VALID,20.6163,VALID,39,VALID,0.736328,
2009-10-27, 00:37:04,VALID,917.276,VALID,0,VALID,97.7017,VALID,0,VALID,20.5773,VALID,39,VALID,0.992188,
2009-10-27, 00:38:04,VALID,917.276,VALID,0,VALID,97.7322,VALID,0,VALID,20.6179,VALID,360,VALID,0.605469,
2009-10-27, 00:39:04,VALID,917.286,VALID,0.2,VALID,97.7246,VALID,0.107441,VALID,20.5562,VALID,276,VALID,0.703516,
2009-10-27, 00:40:04,VALID,917.266,VALID,0,VALID,97.7322,VALID,0.107441,VALID,20.5773,VALID,208,VALID,1.47266,
2009-10-27, 00:41:04,VALID,917.244,VALID,0,VALID,97.7169,VALID,0.107441,VALID,20.5578,VALID,223,VALID,0.238281,
2009-10-27, 00:42:04,VALID,917.234,VALID,0,VALID,97.7551,VALID,0.107441,VALID,20.5383,VALID,223,VALID,0.142578,
2009-10-27, 00:43:04,VALID,917.24,VALID,0,VALID,97.7322,VALID,0.107441,VALID,20.5578,VALID,223,VALID,0,
2009-10-27, 00:44:04,VALID,917.214,VALID,0,VALID,97.7169,VALID,0.107441,VALID,20.5562,VALID,223,VALID,0.395312,
2009-10-27, 00:45:04,VALID,917.182,VALID,0.2,VALID,97.7551,VALID,0.107441,VALID,20.5578,VALID,223,VALID,0.0597656,
2009-10-27, 00:46:04,VALID,917.206,VALID,0,VALID,97.7551,VALID,0.107441,VALID,20.5968,VALID,223,VALID,0.159375,
2009-10-27, 00:47:04,VALID,917.209,VALID,0,VALID,97.7398,VALID,0.107441,VALID,20.5968,VALID,223,VALID,0.136719,
2009-10-27, 00:48:04,VALID,917.228,VALID,0,VALID,97.7322,VALID,0.107441,VALID,20.5578,VALID,207,VALID,0.408594,
2009-10-27, 00:49:04,VALID,917.237,VALID,0.2,VALID,97.7246,VALID,0,VALID,20.5188,VALID,158,VALID,0.357031,
2009-10-27, 00:50:04,VALID,917.228,VALID,0,VALID,97.7627,VALID,0.107441,VALID,20.4977,VALID,158,VALID,0.230078,
2009-10-27, 00:51:04,VALID,917.216,VALID,0,VALID,97.7474,VALID,0.107441,VALID,20.5367,VALID,158,VALID,0.657031,
2009-10-27, 00:52:04,VALID,917.21,VALID,0,VALID,97.7169,VALID,0.107441,VALID,20.5367,VALID,158,VALID,0.666016,
2009-10-27, 00:53:04,VALID,917.228,VALID,0,VALID,97.7627,VALID,0.107441,VALID,20.5383,VALID,46,VALID,0.432813,
2009-10-27, 00:54:04,VALID,917.26,VALID,0,VALID,97.7551,VALID,0,VALID,20.5188,VALID,46,VALID,0.305078,
2009-10-27, 00:55:04,VALID,917.242,VALID,0,VALID,97.7398,VALID,0,VALID,20.5188,VALID,46,VALID,0.313672,
2009-10-27, 00:56:04,VALID,917.226,VALID,0,VALID,97.7474,VALID,0,VALID,20.5204,VALID,46,VALID,0,
2009-10-27, 00:57:04,VALID,917.193,VALID,0,VALID,97.7398,VALID,0,VALID,20.4798,VALID,46,VALID,0.289844,
2009-10-27, 00:58:04,VALID,917.165,VALID,0,VALID,97.7551,VALID,0,VALID,20.5204,VALID,46,VALID,0.151172,
2009-10-27, 00:59:04,VALID,917.157,VALID,0,VALID,97.7779,VALID,0,VALID,20.4993,VALID,46,VALID,0,
2009-10-27, 01:00:04,VALID,917.133,VALID,0,VALID,97.7703,VALID,0,VALID,20.4798,VALID,46,VALID,0,
2009-10-27, 01:01:04,VALID,917.109,VALID,0.2,VALID,97.7627,VALID,0,VALID,20.5188,VALID,46,VALID,0,
2009-10-27, 01:02:04,VALID,917.083,VALID,0,VALID,97.7551,VALID,0,VALID,20.5188,VALID,46,VALID,0,
2009-10-27, 01:03:04,VALID,917.055,VALID,0,VALID,97.7551,VALID,0.107441,VALID,20.5188,VALID,46,VALID,0.331641,
2009-10-27, 01:04:04,VALID,917.076,VALID,0,VALID,97.7703,VALID,0,VALID,20.4798,VALID,46,VALID,0.373437,
2009-10-27, 01:05:04,VALID,917.046,VALID,0,VALID,97.7246,VALID,0,VALID,20.4618,VALID,46,VALID,0.304297,
2009-10-27, 01:06:04,VALID,917.079,VALID,0,VALID,97.7627,VALID,0,VALID,20.4408,VALID,46,VALID,0.437109,
2009-10-27, 01:07:04,VALID,917.062,VALID,0,VALID,97.7246,VALID,0,VALID,20.4618,VALID,46,VALID,0.426562,
2009-10-27, 01:08:04,VALID,917.044,VALID,0,VALID,97.7779,VALID,0,VALID,20.4603,VALID,46,VALID,0.298047,
2009-10-27, 01:09:04,VALID,917.074,VALID,0,VALID,97.7627,VALID,0.107441,VALID,20.4993,VALID,46,VALID,0.139844,
2009-10-27, 01:10:04,VALID,917.07,VALID,0,VALID,97.7703,VALID,0.107441,VALID,20.4993,VALID,46,VALID,0.132422,
2009-10-27, 01:11:04,VALID,917.081,VALID,0,VALID,97.7779,VALID,0.107441,VALID,20.5188,VALID,46,VALID,0.25,
2009-10-27, 01:12:04,VALID,917.045,VALID,0,VALID,97.7551,VALID,0.107441,VALID,20.4993,VALID,46,VALID,0.0117188,
2009-10-27, 01:13:04,VALID,917.066,VALID,0,VALID,97.7627,VALID,0.107441,VALID,20.5188,VALID,46,VALID,0.291406,
2009-10-27, 01:14:04,VALID,917.063,VALID,0,VALID,97.7474,VALID,0.107441,VALID,20.5188,VALID,46,VALID,0.580469,
2009-10-27, 01:15:04,VALID,917.047,VALID,0,VALID,97.7398,VALID,0,VALID,20.4798,VALID,45,VALID,0.505078,
2009-10-27, 01:16:04,VALID,917.082,VALID,0,VALID,97.7627,VALID,0.107441,VALID,20.4603,VALID,45,VALID,0.363281,
2009-10-27, 01:17:04,VALID,917.064,VALID,0,VALID,97.7474,VALID,0.107441,VALID,20.4408,VALID,45,VALID,0.287891,
2009-10-27, 01:18:04,VALID,917.076,VALID,0,VALID,97.7551,VALID,0.107441,VALID,20.4408,VALID,45,VALID,0.532422,
2009-10-27, 01:19:04,VALID,917.073,VALID,0,VALID,97.7703,VALID,0.107441,VALID,20.4603,VALID,45,VALID,0.291406,
2009-10-27, 01:20:04,VALID,917.094,VALID,0,VALID,97.7703,VALID,0.107441,VALID,20.4587,VALID,45,VALID,0.213672,
2009-10-27, 01:21:04,VALID,917.063,VALID,0,VALID,97.7856,VALID,0.107441,VALID,20.4392,VALID,45,VALID,0.169531,
2009-10-27, 01:22:04,VALID,917.057,VALID,0,VALID,97.7703,VALID,0.107441,VALID,20.4392,VALID,45,VALID,0,
2009-10-27, 01:23:04,VALID,917.036,VALID,0,VALID,97.7627,VALID,0.107441,VALID,20.4798,VALID,45,VALID,0.00234375,
2009-10-27, 01:24:04,VALID,917.024,VALID,0,VALID,97.7627,VALID,0,VALID,20.4798,VALID,45,VALID,0.253906,
2009-10-27, 01:25:04,VALID,916.992,VALID,0,VALID,97.7703,VALID,0.107441,VALID,20.4587,VALID,45,VALID,0.354297,
2009-10-27, 01:26:04,VALID,916.977,VALID,0,VALID,97.7627,VALID,0.107441,VALID,20.4197,VALID,45,VALID,0.438281,
2009-10-27, 01:27:04,VALID,916.983,VALID,0,VALID,97.7703,VALID,0.107441,VALID,20.4197,VALID,45,VALID,0.242578,
2009-10-27, 01:28:04,VALID,916.935,VALID,0,VALID,97.7856,VALID,0.107441,VALID,20.4392,VALID,45,VALID,0.241406,
2009-10-27, 01:29:04,VALID,916.955,VALID,0.2,VALID,97.7779,VALID,0.107441,VALID,20.4197,VALID,45,VALID,0.237891,
2009-10-27, 01:30:04,VALID,916.927,VALID,0,VALID,97.7627,VALID,0,VALID,20.4408,VALID,45,VALID,0.0269531,
2009-10-27, 01:31:04,VALID,916.94,VALID,0,VALID,97.7856,VALID,0.107441,VALID,20.4408,VALID,45,VALID,0.00195313,
2009-10-27, 01:32:04,VALID,916.914,VALID,0,VALID,97.7627,VALID,0.107441,VALID,20.4408,VALID,45,VALID,0.398828,
2009-10-27, 01:33:04,VALID,916.932,VALID,0,VALID,97.7856,VALID,0.107441,VALID,20.4213,VALID,44,VALID,0.516406,
2009-10-27, 01:34:04,VALID,916.924,VALID,0.2,VALID,97.7779,VALID,0.107441,VALID,20.4002,VALID,347,VALID,0.479688,
2009-10-27, 01:35:04,VALID,916.921,VALID,0,VALID,97.7856,VALID,0.107441,VALID,20.4018,VALID,347,VALID,0.344922,
2009-10-27, 01:36:04,VALID,916.916,VALID,0,VALID,97.7627,VALID,0.107441,VALID,20.3628,VALID,347,VALID,0.739062,
2009-10-27, 01:37:04,VALID,916.945,VALID,0,VALID,97.7856,VALID,0.107441,VALID,20.3628,VALID,346,VALID,0.556641,
2009-10-27, 01:38:04,VALID,916.93,VALID,0,VALID,97.7627,VALID,0.107441,VALID,20.3433,VALID,278,VALID,0.805078,
2009-10-27, 01:39:04,VALID,916.94,VALID,0,VALID,97.7779,VALID,0.107441,VALID,20.3433,VALID,274,VALID,0.575391,
2009-10-27, 01:40:04,VALID,916.929,VALID,0,VALID,97.7779,VALID,0,VALID,20.3433,VALID,274,VALID,0.687109,
2009-10-27, 01:41:04,VALID,916.941,VALID,0,VALID,97.7703,VALID,0.107441,VALID,20.3433,VALID,274,VALID,0.81875,
2009-10-27, 01:42:04,VALID,916.932,VALID,0,VALID,97.7627,VALID,0.107441,VALID,20.3433,VALID,274,VALID,0.575391,
2009-10-27, 01:43:04,VALID,916.941,VALID,0,VALID,97.7856,VALID,0,VALID,20.3628,VALID,274,VALID,0.5625,
2009-10-27, 01:44:04,VALID,916.961,VALID,0.2,VALID,97.7856,VALID,0,VALID,20.3433,VALID,274,VALID,0.836328,
2009-10-27, 01:45:04,VALID,916.978,VALID,0,VALID,97.7551,VALID,0.107441,VALID,20.3043,VALID,254,VALID,1.79141,
2009-10-27, 01:46:04,VALID,917.004,VALID,0,VALID,97.7932,VALID,0.107441,VALID,20.2653,VALID,248,VALID,1.85508,
2009-10-27, 01:47:04,VALID,916.957,VALID,0,VALID,97.7779,VALID,0.107441,VALID,20.2653,VALID,258,VALID,1.28242,
2009-10-27, 01:48:04,VALID,916.963,VALID,0,VALID,97.7703,VALID,0,VALID,20.2068,VALID,263,VALID,2.16094,
2009-10-27, 01:49:04,VALID,916.966,VALID,0.2,VALID,97.7779,VALID,0,VALID,20.1678,VALID,252,VALID,1.35273,
2009-10-27, 01:50:04,VALID,916.977,VALID,0,VALID,97.7932,VALID,0.107441,VALID,20.1678,VALID,250,VALID,1.71523,
2009-10-27, 01:51:04,VALID,916.95,VALID,0,VALID,97.7856,VALID,0.107441,VALID,20.1678,VALID,253,VALID,1.01055,
2009-10-27, 01:52:04,VALID,916.934,VALID,0.2,VALID,97.7932,VALID,0.107441,VALID,20.1483,VALID,257,VALID,1.56133,
2009-10-27, 01:53:04,VALID,916.927,VALID,0,VALID,97.8008,VALID,0,VALID,20.1288,VALID,256,VALID,1.97461,
2009-10-27, 01:54:04,VALID,916.918,VALID,0.2,VALID,97.7932,VALID,0.107441,VALID,20.1093,VALID,243,VALID,1.50273,
2009-10-27, 01:55:04,VALID,916.92,VALID,0,VALID,97.8008,VALID,0,VALID,20.1093,VALID,241,VALID,0.992188,
2009-10-27, 01:56:04,VALID,916.937,VALID,0,VALID,97.8237,VALID,0.107441,VALID,20.0898,VALID,240,VALID,1.0418,
2009-10-27, 01:57:04,VALID,916.927,VALID,0,VALID,97.8084,VALID,0.107441,VALID,20.1288,VALID,262,VALID,1.43398,
2009-10-27, 01:58:04,VALID,916.93,VALID,0.2,VALID,97.8313,VALID,0,VALID,20.0703,VALID,259,VALID,1.36055,
2009-10-27, 01:59:04,VALID,916.951,VALID,0,VALID,97.8237,VALID,0,VALID,20.0898,VALID,269,VALID,1.13477,
2009-10-27, 02:00:04,VALID,916.947,VALID,0,VALID,97.8313,VALID,0.107441,VALID,20.0703,VALID,271,VALID,0.809766,
2009-10-27, 02:01:04,VALID,916.927,VALID,0,VALID,97.8237,VALID,0,VALID,20.0703,VALID,271,VALID,1.33086,
2009-10-27, 02:02:04,VALID,916.958,VALID,0,VALID,97.7932,VALID,0,VALID,20.0703,VALID,271,VALID,1.66641,
2009-10-27, 02:03:04,VALID,916.968,VALID,0,VALID,97.8008,VALID,0,VALID,20.0508,VALID,242,VALID,1.16484,
2009-10-27, 02:04:04,VALID,916.968,VALID,0,VALID,97.8237,VALID,0.107441,VALID,20.0298,VALID,258,VALID,1.17852,
2009-10-27, 02:05:04,VALID,916.964,VALID,0,VALID,97.816,VALID,0,VALID,20.0718,VALID,262,VALID,1.21055,
2009-10-27, 02:06:04,VALID,916.98,VALID,0.2,VALID,97.8313,VALID,0.107441,VALID,20.0703,VALID,267,VALID,1.13828,
2009-10-27, 02:07:04,VALID,917.006,VALID,0,VALID,97.816,VALID,0.107441,VALID,20.0703,VALID,283,VALID,1.47617,
2009-10-27, 02:08:04,VALID,916.998,VALID,0,VALID,97.8313,VALID,0.107441,VALID,20.0898,VALID,238,VALID,1.35469,
2009-10-27, 02:09:04,VALID,917.007,VALID,0,VALID,97.8313,VALID,0.107441,VALID,20.0703,VALID,261,VALID,2.08906,
2009-10-27, 02:10:04,VALID,917.039,VALID,0,VALID,97.816,VALID,0,VALID,20.0313,VALID,246,VALID,1.72578,
2009-10-27, 02:11:04,VALID,917.03,VALID,0,VALID,97.8084,VALID,0,VALID,20.0313,VALID,254,VALID,2.29766,
2009-10-27, 02:12:04,VALID,917.005,VALID,0.2,VALID,97.8237,VALID,0,VALID,20.0118,VALID,234,VALID,1.74063,
2009-10-27, 02:13:04,VALID,917.034,VALID,0,VALID,97.8465,VALID,0,VALID,20.0313,VALID,250,VALID,1.48438,
2009-10-27, 02:14:04,VALID,916.991,VALID,0.2,VALID,97.8389,VALID,0.107441,VALID,20.0118,VALID,256,VALID,1.34961,
2009-10-27, 02:15:04,VALID,916.986,VALID,0,VALID,97.8313,VALID,0,VALID,20.0313,VALID,266,VALID,1.25039,
2009-10-27, 02:16:04,VALID,917.025,VALID,0.2,VALID,97.8465,VALID,0,VALID,20.0118,VALID,229,VALID,1.52188,
2009-10-27, 02:17:04,VALID,917.015,VALID,0.2,VALID,97.8389,VALID,0,VALID,20.0118,VALID,245,VALID,1.02109,
2009-10-27, 02:18:04,VALID,916.99,VALID,0.2,VALID,97.8542,VALID,0,VALID,19.9908,VALID,280,VALID,0.821094,
2009-10-27, 02:19:04,VALID,917.005,VALID,0.2,VALID,97.8313,VALID,0,VALID,19.9923,VALID,279,VALID,1.65742,
2009-10-27, 02:20:04,VALID,916.998,VALID,0.2,VALID,97.8465,VALID,0.107441,VALID,19.9923,VALID,279,VALID,1.15508,
2009-10-27, 02:21:04,VALID,917.01,VALID,0.2,VALID,97.8313,VALID,0,VALID,19.9728,VALID,220,VALID,1.40469,
2009-10-27, 02:22:04,VALID,917.016,VALID,0.2,VALID,97.816,VALID,0,VALID,19.9533,VALID,259,VALID,2.09375,
2009-10-27, 02:23:04,VALID,917.042,VALID,0.2,VALID,97.8313,VALID,0,VALID,19.9338,VALID,217,VALID,1.57383,
2009-10-27, 02:24:04,VALID,917.064,VALID,0.2,VALID,97.8542,VALID,0,VALID,19.9338,VALID,265,VALID,1.03242,
2009-10-27, 02:25:04,VALID,917.059,VALID,0.2,VALID,97.8389,VALID,0,VALID,19.9338,VALID,264,VALID,0.785547,
2009-10-27, 02:26:04,VALID,917.041,VALID,0.4,VALID,97.8542,VALID,0.107441,VALID,19.9143,VALID,249,VALID,1.34961,
2009-10-27, 02:27:04,VALID,917.071,VALID,0,VALID,97.8618,VALID,0,VALID,19.9143,VALID,249,VALID,1.20625,
2009-10-27, 02:28:04,VALID,917.039,VALID,0.2,VALID,97.8465,VALID,0,VALID,19.8948,VALID,247,VALID,1.73164,
2009-10-27, 02:29:04,VALID,917.012,VALID,0.4,VALID,97.8542,VALID,0,VALID,19.8948,VALID,245,VALID,1.20703,
2009-10-27, 02:30:04,VALID,917.033,VALID,0.6,VALID,97.8542,VALID,0,VALID,19.8753,VALID,245,VALID,1.02422,
2009-10-27, 02:31:04,VALID,916.965,VALID,0.6,VALID,97.8542,VALID,0,VALID,19.8753,VALID,245,VALID,1.37109,
2009-10-27, 02:32:04,VALID,916.941,VALID,0.2,VALID,97.8618,VALID,0,VALID,19.8168,VALID,244,VALID,1.61992,
2009-10-27, 02:33:04,VALID,916.96,VALID,0.2,VALID,97.8618,VALID,0,VALID,19.8168,VALID,244,VALID,0.941797,
2009-10-27, 02:34:04,VALID,916.934,VALID,0,VALID,97.8694,VALID,0,VALID,19.8168,VALID,228,VALID,0.847266,
2009-10-27, 02:35:04,VALID,916.99,VALID,0.2,VALID,97.877,VALID,0,VALID,19.8363,VALID,230,VALID,1.325,
2009-10-27, 02:36:04,VALID,916.947,VALID,0.4,VALID,97.8847,VALID,0,VALID,19.8363,VALID,178,VALID,1.49063,
2009-10-27, 02:37:04,VALID,916.941,VALID,0.2,VALID,97.8694,VALID,0,VALID,19.8573,VALID,196,VALID,1.0707,
2009-10-27, 02:38:04,VALID,916.932,VALID,0.4,VALID,97.877,VALID,0.107441,VALID,19.8558,VALID,196,VALID,0.460938,
2009-10-27, 02:39:04,VALID,916.899,VALID,0,VALID,97.8618,VALID,0,VALID,19.8558,VALID,196,VALID,0.450781,
2009-10-27, 02:40:04,VALID,916.907,VALID,0.2,VALID,97.8694,VALID,0,VALID,19.8558,VALID,196,VALID,0.580078,
2009-10-27, 02:41:04,VALID,916.878,VALID,0,VALID,97.8847,VALID,0,VALID,19.8768,VALID,196,VALID,0.734766,
2009-10-27, 02:42:04,VALID,916.844,VALID,0.2,VALID,97.8542,VALID,0,VALID,19.8768,VALID,196,VALID,0.960547,
2009-10-27, 02:43:04,VALID,916.76,VALID,0.2,VALID,97.877,VALID,0,VALID,19.8753,VALID,196,VALID,0.164063,
2009-10-27, 02:44:04,VALID,916.708,VALID,0.2,VALID,97.8694,VALID,0,VALID,19.8363,VALID,196,VALID,0.255469,
2009-10-27, 02:45:04,VALID,916.697,VALID,0.4,VALID,97.8694,VALID,0,VALID,19.8363,VALID,195,VALID,0.462891,
2009-10-27, 02:46:04,VALID,916.664,VALID,0.6,VALID,97.8847,VALID,0,VALID,19.7973,VALID,196,VALID,0.496094,
2009-10-27, 02:47:04,VALID,916.638,VALID,0.8,VALID,97.8465,VALID,0,VALID,19.7778,VALID,195,VALID,0.745703,
2009-10-27, 02:48:04,VALID,916.572,VALID,0.4,VALID,97.8694,VALID,0,VALID,19.7583,VALID,196,VALID,0.408594,
2009-10-27, 02:49:04,VALID,916.517,VALID,0.4,VALID,97.8923,VALID,0,VALID,19.7388,VALID,196,VALID,0.382813,
2009-10-27, 02:50:04,VALID,916.465,VALID,0.4,VALID,97.8694,VALID,0,VALID,19.7193,VALID,196,VALID,0.564062,
2009-10-27, 02:51:04,VALID,916.506,VALID,0.4,VALID,97.8847,VALID,0,VALID,19.7598,VALID,196,VALID,0.364844,
2009-10-27, 02:52:04,VALID,916.482,VALID,0.2,VALID,97.8923,VALID,0,VALID,19.7193,VALID,196,VALID,0.397656,
2009-10-27, 02:53:04,VALID,916.494,VALID,0.2,VALID,97.8999,VALID,0,VALID,19.7388,VALID,196,VALID,0.360547,
2009-10-27, 02:54:04,VALID,916.408,VALID,0,VALID,97.8847,VALID,0,VALID,19.7388,VALID,196,VALID,0.241406,
2009-10-27, 02:55:04,VALID,916.381,VALID,0.2,VALID,97.8847,VALID,0,VALID,19.7388,VALID,196,VALID,0.605078,
2009-10-27, 02:56:04,VALID,916.338,VALID,0,VALID,97.8847,VALID,0,VALID,19.7388,VALID,225,VALID,0.966016,
2009-10-27, 02:57:04,VALID,916.309,VALID,0.2,VALID,97.9075,VALID,0,VALID,19.7388,VALID,250,VALID,0.771875,
2009-10-27, 02:58:04,VALID,916.262,VALID,0,VALID,97.8999,VALID,0.107441,VALID,19.7583,VALID,250,VALID,0.694531,
2009-10-27, 02:59:04,VALID,916.2,VALID,0.2,VALID,97.9152,VALID,0,VALID,19.7388,VALID,250,VALID,0.610547,
2009-10-27, 03:00:04,VALID,916.145,VALID,0,VALID,97.8923,VALID,0,VALID,19.7388,VALID,250,VALID,0.914844,
2009-10-27, 03:01:04,VALID,916.138,VALID,0,VALID,97.8923,VALID,0,VALID,19.7388,VALID,250,VALID,0.441797,
2009-10-27, 03:02:04,VALID,916.078,VALID,0.2,VALID,97.8999,VALID,0,VALID,19.7388,VALID,250,VALID,0.278516,
2009-10-27, 03:03:04,VALID,916.048,VALID,0,VALID,97.8999,VALID,0,VALID,19.7793,VALID,250,VALID,0.403516,
2009-10-27, 03:04:04,VALID,916.061,VALID,0,VALID,97.8999,VALID,0,VALID,19.7583,VALID,250,VALID,0.0597656,
2009-10-27, 03:05:04,VALID,916.059,VALID,0.2,VALID,97.9075,VALID,0,VALID,19.7583,VALID,250,VALID,0.0761719,
2009-10-27, 03:06:04,VALID,916.061,VALID,0,VALID,97.8923,VALID,0,VALID,19.7973,VALID,250,VALID,0,
2009-10-27, 03:07:04,VALID,916.065,VALID,0,VALID,97.8847,VALID,0,VALID,19.7778,VALID,250,VALID,0.432031,
2009-10-27, 03:08:04,VALID,916.046,VALID,0,VALID,97.9152,VALID,0,VALID,19.7778,VALID,250,VALID,0.341797,
2009-10-27, 03:09:04,VALID,916.06,VALID,0,VALID,97.8999,VALID,0,VALID,19.7778,VALID,250,VALID,0.732813,
2009-10-27, 03:10:04,VALID,916.033,VALID,0,VALID,97.8923,VALID,0,VALID,19.7583,VALID,250,VALID,0.773438,
2009-10-27, 03:11:04,VALID,916.039,VALID,0.2,VALID,97.8999,VALID,0,VALID,19.7793,VALID,250,VALID,0.448438,
2009-10-27, 03:12:04,VALID,916.06,VALID,0,VALID,97.8923,VALID,0,VALID,19.7598,VALID,250,VALID,1.13555,
2009-10-27, 03:13:04,VALID,916.064,VALID,0,VALID,97.8923,VALID,0,VALID,19.7388,VALID,250,VALID,0.272656,
2009-10-27, 03:14:04,VALID,916.046,VALID,0,VALID,97.9075,VALID,0,VALID,19.7388,VALID,250,VALID,0.096875,
2009-10-27, 03:15:04,VALID,916.055,VALID,0,VALID,97.9304,VALID,0,VALID,19.7988,VALID,250,VALID,0.416797,
2009-10-27, 03:16:04,VALID,916.072,VALID,0,VALID,97.9075,VALID,0,VALID,19.8168,VALID,250,VALID,0,
2009-10-27, 03:17:04,VALID,916.057,VALID,0.2,VALID,97.9075,VALID,0,VALID,19.8378,VALID,250,VALID,0.0230469,
2009-10-27, 03:18:04,VALID,916.041,VALID,0,VALID,97.877,VALID,0,VALID,19.8168,VALID,250,VALID,0.385547,
2009-10-27, 03:19:04,VALID,916.051,VALID,0,VALID,97.877,VALID,0,VALID,19.8183,VALID,250,VALID,0.332422,
2009-10-27, 03:20:04,VALID,916.029,VALID,0,VALID,97.8923,VALID,0,VALID,19.8183,VALID,250,VALID,0.138281,
2009-10-27, 03:21:04,VALID,916.053,VALID,0,VALID,97.8847,VALID,0,VALID,19.8183,VALID,250,VALID,0.422656,
2009-10-27, 03:22:04,VALID,916.031,VALID,0.2,VALID,97.8923,VALID,0,VALID,19.7778,VALID,250,VALID,0.400781,
2009-10-27, 03:23:04,VALID,916.042,VALID,0,VALID,97.8847,VALID,0,VALID,19.7973,VALID,250,VALID,0.148828,
2009-10-27, 03:24:04,VALID,916.064,VALID,0,VALID,97.8923,VALID,0,VALID,19.8183,VALID,250,VALID,0,
2009-10-27, 03:25:04,VALID,916.062,VALID,0,VALID,97.8694,VALID,0,VALID,19.8183,VALID,250,VALID,0.0578125,
2009-10-27, 03:26:04,VALID,916.056,VALID,0.2,VALID,97.9075,VALID,0,VALID,19.8378,VALID,250,VALID,0,
2009-10-27, 03:27:04,VALID,916.081,VALID,0,VALID,97.8847,VALID,0,VALID,19.8378,VALID,250,VALID,0,
2009-10-27, 03:28:04,VALID,916.107,VALID,0,VALID,97.9075,VALID,0,VALID,19.8573,VALID,250,VALID,0,
2009-10-27, 03:29:04,VALID,916.099,VALID,0,VALID,97.8999,VALID,0,VALID,19.8363,VALID,250,VALID,0,
2009-10-27, 03:30:04,VALID,916.083,VALID,0.2,VALID,97.8847,VALID,0,VALID,19.8768,VALID,250,VALID,0,
2009-10-27, 03:31:04,VALID,916.096,VALID,0,VALID,97.8847,VALID,0,VALID,19.8558,VALID,250,VALID,0.00820312,
2009-10-27, 03:32:04,VALID,916.085,VALID,0,VALID,97.8923,VALID,0,VALID,19.8768,VALID,250,VALID,0,
2009-10-27, 03:33:04,VALID,916.071,VALID,0,VALID,97.8694,VALID,0,VALID,19.8768,VALID,250,VALID,0,
2009-10-27, 03:34:04,VALID,916.087,VALID,0.2,VALID,97.8694,VALID,0,VALID,19.8768,VALID,250,VALID,0,
2009-10-27, 03:35:04,VALID,916.072,VALID,0,VALID,97.8923,VALID,0,VALID,19.8768,VALID,250,VALID,0,
2009-10-27, 03:36:04,VALID,916.112,VALID,0,VALID,97.8847,VALID,0,VALID,19.8768,VALID,250,VALID,0,
2009-10-27, 03:37:04,VALID,916.154,VALID,0.2,VALID,97.8847,VALID,0,VALID,19.8963,VALID,250,VALID,0,
2009-10-27, 03:38:04,VALID,916.18,VALID,0,VALID,97.877,VALID,0,VALID,19.8753,VALID,250,VALID,0,
2009-10-27, 03:39:04,VALID,916.175,VALID,0,VALID,97.877,VALID,0,VALID,19.8963,VALID,250,VALID,0,
2009-10-27, 03:40:04,VALID,916.222,VALID,0,VALID,97.877,VALID,0,VALID,19.8963,VALID,250,VALID,0.0898438,
2009-10-27, 03:41:04,VALID,916.222,VALID,0.2,VALID,97.8847,VALID,0,VALID,19.8963,VALID,250,VALID,0.105859,